Flag for French Polynesia Weather past 2 weeks in Gambier Islands, French Polynesia

Now
67 °F

Mild.


Feels Like: 67 °F
Forecast: 69 / 72 °F
Wind: 8 mph from Southwest

Location: Rikitea

Current Time: Jul 4, 2015 at 5:32:55 AM

Latest Report: Jul 4, 2015 at 4:00 AM


Visibility: N/A

Pressure: 29.90 "Hg

Humidity: 75%

Dew point: 59 °F

Location of Gambier IslandsLocation

Historic Weather in Gambier Islands — Graph

°F

Gambier Islands temperature yesterday

Maximum temperature yesterday: 72 °F (at 11:00 AM)
Minimum temperature yesterday: 66 °F (at 7:00 AM)
Average temperature yesterday: 69 °F

Past Weeks' High & Low Weather Summary

 TemperatureHumidityPressure
High79 °F (Jun 21, 1:00 PM)100% (Jun 21, 4:00 AM)30.11 "Hg (Jun 21, 4:00 AM)
Low66 °F (Jul 3, 7:00 AM)65% (Jun 19, 7:00 PM)29.79 "Hg (Jul 2, 3:00 PM)
Average72 °F90%29.99 "Hg
* Reported Jun 19 4:00 AM — Jul 4 4:00 AM, Gambier Islands, Weather by CustomWeather, © 2015

Note: Actual official high and low records may vary slightly from our data, if they occured in-between our weather recording intervals... More about our weather records

Advertising

Gambier Islands weather history for previous 24 hours

 ConditionsComfort  
Time TempWeatherWind HumidityBarometerVisibility
4:00 AM
Sat, Jul 4
67 °FMild.8 mph75%29.90 "HgN/A
3:00 AM67 °FMild.7 mph67%29.88 "HgN/A
2:00 AM68 °FMild.9 mph66%29.89 "HgN/A
1:00 AM68 °FMild.10 mph65%29.91 "HgN/A
12:00 AM68 °FMild.9 mph67%29.89 "HgN/A
11:00 PM
Fri, Jul 3
69 °FMild.8 mph71%29.94 "HgN/A
10:00 PM69 °FMild.8 mph73%29.92 "HgN/A
9:00 PM69 °FMild.9 mph77%29.90 "HgN/A
8:00 PM69 °FMild.8 mph77%29.91 "HgN/A
7:00 PM68 °FMild.8 mph79%29.90 "HgN/A
6:00 PM68 °FMild.7 mph83%29.88 "HgN/A
5:00 PM68 °FPassing clouds.7 mph84%29.87 "Hg25 mi
4:00 PM69 °FPartly sunny.6 mph86%29.86 "Hg25 mi
3:00 PM70 °FOvercast.6 mph83%29.86 "Hg25 mi
2:00 PM71 °FPartly sunny.6 mph84%29.86 "Hg31 mi
1:00 PM71 °FScattered clouds.7 mph82%29.86 "Hg31 mi
11:00 AM72 °FScattered clouds.7 mph83%29.89 "Hg31 mi
10:00 AM72 °FPassing clouds.6 mph83%29.90 "Hg31 mi
9:00 AM70 °FPassing clouds.6 mph86%29.90 "Hg31 mi
8:00 AM68 °FPassing clouds.5 mph91%29.88 "Hg31 mi
7:00 AM66 °FPassing clouds.3 mph97%29.86 "Hg25 mi
6:00 AM66 °FPassing clouds.5 mph95%29.84 "Hg19 mi
5:00 AM67 °FMild.3 mph92%29.82 "HgN/A
Weather by CustomWeather, © 2015

See weather overviewHow to use our weather pages